SAS768 LKPR-EKCH

Flight info

Callsign SAS768
Flight time N/A
Altitude 36000
Route VENOX4B/30 VENOX DCT DEKOV Y621 GARKI DCT POGAB/N0449F350 Z36 OBANI/N0446F360 M725 GERGA T239 PEROM T298 MONAK
Aircraft A319/M-SDE3FGIJ1RWXY/LB1

Departure

Time N/A
Airport Václav Havel Airport Prague (LKPR)

Arrival

Time 2026-04-30 18:18
Airport Copenhagen Kastrup Airport (EKCH)
Time Latitude Longitude Altitude Speed Heading
2026-04-30 17:39 51.86028 13.70109 36395 ft 412 kts 351°
2026-04-30 17:42 52.13738 13.58475 36407 ft 412 kts 350°
2026-04-30 17:43 52.27692 13.53356 36404 ft 410 kts 353°
2026-04-30 17:44 52.44435 13.47518 36382 ft 411 kts 352°
2026-04-30 17:47 52.69622 13.38505 36410 ft 412 kts 352°
2026-04-30 17:48 52.89231 13.31427 36422 ft 412 kts 352°
2026-04-30 17:50 53.11668 13.23261 36411 ft 414 kts 351°
2026-04-30 17:52 53.28586 13.17025 36417 ft 415 kts 351°
2026-04-30 17:54 53.53975 13.07594 36414 ft 416 kts 350°
2026-04-30 17:56 53.76672 12.99057 36415 ft 419 kts 349°
2026-04-30 17:57 53.85233 12.95813 36156 ft 421 kts 349°
2026-04-30 17:58 53.93838 12.92551 35395 ft 424 kts 349°
2026-04-30 17:59 54.05392 12.88139 34435 ft 427 kts 349°
2026-04-30 18:00 54.17040 12.83648 32819 ft 430 kts 349°
2026-04-30 18:00 54.25804 12.80249 30833 ft 432 kts 349°
2026-04-30 18:01 54.31617 12.77992 29453 ft 425 kts 349°
2026-04-30 18:02 54.40129 12.74744 27508 ft 410 kts 350°
2026-04-30 18:02 54.48383 12.71778 25693 ft 398 kts 351°
2026-04-30 18:03 54.56382 12.68881 23998 ft 388 kts 351°
2026-04-30 18:04 54.64212 12.65994 22046 ft 379 kts 351°
2026-04-30 18:05 54.74378 12.62258 19652 ft 368 kts 351°
2026-04-30 18:06 54.84103 12.58646 16524 ft 350 kts 351°
2026-04-30 18:07 54.93500 12.55152 13029 ft 341 kts 351°
2026-04-30 18:08 55.00342 12.52586 10606 ft 330 kts 350°
2026-04-30 18:09 55.09213 12.49265 7705 ft 324 kts 350°
2026-04-30 18:10 55.17209 12.46243 6381 ft 319 kts 350°
2026-04-30 18:11 55.25819 12.42983 5166 ft 314 kts 349°
2026-04-30 18:11 55.31909 12.40662 4472 ft 281 kts 349°
2026-04-30 18:12 55.37333 12.38592 3975 ft 254 kts 348°
2026-04-30 18:13 55.40694 12.37310 3726 ft 237 kts 348°
2026-04-30 18:13 55.45088 12.38646 3470 ft 216 kts 38°
2026-04-30 18:14 55.47345 12.42103 3117 ft 210 kts 38°
2026-04-30 18:15 55.50556 12.47025 2313 ft 196 kts 37°
2026-04-30 18:15 55.53423 12.51428 1561 ft 170 kts 37°
2026-04-30 18:16 55.55052 12.53935 1143 ft 144 kts 36°
2026-04-30 18:16 55.56523 12.56197 770 ft 137 kts 38°
2026-04-30 18:17 55.57242 12.57304 586 ft 137 kts 38°
2026-04-30 18:17 55.57959 12.58405 397 ft 136 kts 38°
2026-04-30 18:17 55.59360 12.60569 36 ft 132 kts 39°
2026-04-30 18:18 55.59962 12.61499 18 ft 97 kts 41°
2026-04-30 18:18 55.60356 12.62105 17 ft 61 kts 39°
2026-04-30 18:18 55.60620 12.62337 19 ft 33 kts 13°
2026-04-30 18:18 55.60791 12.62416 17 ft 20 kts 28°
2026-04-30 18:19 55.60914 12.62594 17 ft 25 kts 41°
2026-04-30 18:19 55.61057 12.62816 17 ft 30 kts 41°
2026-04-30 18:19 55.61206 12.63046 17 ft 28 kts 41°
2026-04-30 18:19 55.61327 12.63234 18 ft 20 kts 41°
2026-04-30 18:20 55.61441 12.63410 19 ft 24 kts 41°
2026-04-30 18:20 55.61578 12.63622 17 ft 28 kts 41°
2026-04-30 18:20 55.61710 12.63827 18 ft 27 kts 41°
2026-04-30 18:20 55.61843 12.64033 17 ft 24 kts 39°
2026-04-30 18:21 55.61985 12.64168 17 ft 19 kts 25°
2026-04-30 18:21 55.62096 12.64261 17 ft 16 kts 25°
2026-04-30 18:21 55.62160 12.64314 19 ft 0 kts 25°
2026-04-30 18:25 55.62163 12.64316 16 ft 3 kts 25°
2026-04-30 18:26 55.62334 12.64424 17 ft 21 kts 14°
2026-04-30 18:26 55.62446 12.64479 17 ft 14 kts 15°
2026-04-30 18:26 55.62524 12.64400 19 ft 16 kts 303°
2026-04-30 18:27 55.62651 12.64304 19 ft 13 kts 25°
2026-04-30 18:27 55.62677 12.64375 17 ft 4 kts 101°
2026-04-30 18:28 55.62670 12.64437 17 ft 0 kts 101°